Location: Betz
(49.1556°N, 2.9558°E)
Time: 01:54:12
(UTC+00:00)

SL-8 R/B - Pass Details

Date: 18 September 2019
Orbit: 657 x 667 km, 48.4° (Epoch: 20 October)

Event Time Altitude Azimuth Distance (km) Brightness Sun altitude
Rises 20:42:03 0° 271° (W) 2,987 7.9 -26.0°
Reaches altitude 10° 20:44:24 10° 271° (W) 2,077 6.9 -26.3°
Enters shadow 20:48:22 61° 261° (W) 755 4.0 -26.8°
